Regional Weather Roundup
Issued by NWS Charleston, SC

Current Version | Previous Version | Graphics & Text | Print | Product List | Glossary On
Versions: 1 2 3 4 5 6 7 8 9 10 11 12 13 14 15 16 17 18 19 20 21 22 23 24 25 26 27 28 29 30 31 32 33 34 35 36 37 38 39 40 41 42 43 44 45 46 47 48 49 50
000 ASUS42 KCHS 310726 RWRCHS REGIONAL WEATHER ROUNDUP NATIONAL WEATHER SERVICE CHARLESTON SC 200 AM EST SAT JAN 31 2015 NOTE: "FAIR" INDICATES FEW OR NO CLOUDS BELOW 12,000 FEET WITH NO SIGNIFICANT WEATHER AND/OR OBSTRUCTIONS TO VISIBILITY. NOT ALL STATIONS ARE QUALITY CONTROLLED BY THE NATIONAL WEATHER SERVICE. USE DATA WITH CAUTION...ESPECIALLY DEWPOINT OBSERVATIONS. SCZ027-030-031-034>040-042>050-310800- ...SOUTHEAST SOUTH CAROLINA... CITY SKY/WX TMP DP RH WIND PRES REMARKS N CHARLESTON CLEAR 37 18 46 NE7 30.31R WCI 32 WATERFRONT PRK NOT AVBL MOUNT PLEASANT FAIR 36 23 60 CALM 30.32R PINOPOLIS N/A 43 21 42 NE17 30.21F MONCKS CORNER FAIR 41 16 36 NE8G17 30.31R SUMMERVILLE NOT AVBL BEAUFORT MCAS CLEAR 37 26 64 CALM 30.32R BEAUFORT ARPT FAIR 39 28 65 N5 30.31R WCI 36 HILTON HEAD IS CLEAR 43 28 56 N10 30.33R WALTERBORO SUNNY 30 25 80 CALM 30.33R ALLENDALE FAIR 34 23 64 CALM 30.32S ...SOUTHERN MIDLANDS AND PEE DEE... CITY SKY/WX TMP DP RH WIND PRES REMARKS GEORGETOWN NOT AVBL KINGSTREE NOT AVBL ORANGEBURG CLEAR 32 25 75 CALM 30.32R BARNWELL FAIR 32 25 74 CALM 30.33R AIKEN FAIR 32 21 64 N5 30.34R WCI 27 MANNING FAIR 34 21 60 CALM 30.32S COLUMBIA CLEAR 28 20 71 W3 30.32R SUMTER CLEAR 26 15 63 NE7 30.30S WCI 19 FLORENCE CLEAR 32 13 45 N5 30.32S WCI 27 MYRTLE BEACH CLEAR 36 12 38 N9 30.32S WCI 29 N MYRTLE BEACH CLEAR 35 14 42 N7 30.30S WCI 29 $$ GAZ063-065-086>088-099>101-113>116-118-119-134>141-150-310800- ...SOUTHEAST GEORGIA... CITY SKY/WX TMP DP RH WIND PRES REMARKS SAVANNAH ARPT CLEAR 36 27 69 N7 30.32R WCI 30 HUNTER AAF CLEAR 41 27 57 N3 30.29R FORT STEWART PTCLDY 36 28 73 N3 30.30R STATESBORO CLEAR 30 29 96 CALM 30.32R SYLVANIA SUNNY 36 27 69 CALM 30.32S CLAXTON FAIR 32 32 100 CALM 30.33R ...CSRA...CENTRAL AND FAR SOUTHEAST GEORGIA... CITY SKY/WX TMP DP RH WIND PRES REMARKS THOMSON CLEAR 28 27 96 CALM 30.38R AUGUSTA-BUSH CLEAR 28 20 71 CALM 30.34R AUGUSTA-DANIEL CLEAR 38 17 42 N6 30.32S WCI 33 SWAINSBORO FAIR 32 25 74 CALM 30.33S VIDALIA CLEAR 36 30 80 N3 30.33R EASTMAN FAIR 31 28 88 CALM 30.35S HAZLEHURST FAIR 39 29 68 N6 30.31S WCI 35 ALMA MOCLDY 40 26 57 N6 30.31S WCI 36 WAYCROSS MOCLDY 42 32 68 N6 30.31S JESUP FAIR 45 32 61 CALM 30.31S BAXLEY FAIR 41 28 60 N6 30.31S BRUNSWICK MOCLDY 45 28 53 N6 30.30S SAINT SIMONS PTCLDY 43 29 57 N8 30.29R $$ SCZ027-028-034-036>038-045-046-048>050-GAZ119-141-310800- ...LAKE AND SUPPLEMENTAL COASTAL OBSERVATIONS... STATION/POSITION TIME TEMP WIND PRES WAVE SWELL AIR SEA DIR/SP/G HT/PER HT/PER/DIR (UTC) (F) (DEG/KT/KT) (MB) (FT/S) (FT/S/D) UPR LAKE MARION NOT AVBL WINYAH BAY 0645 37 360/ 4 1025.0R LAKE MURRAY 0600 36 320/ 2/ 4 1025.7S ACE BASIN NERRS NOT AVBL FORT PULASKI 0700 44 52 360/ 6/ 7 1026.7R SAPELO ISLAND 0700 38 360/ 5 1026.0R $$ ANZ835-935-AMZ111-154-330-350-352-354-370-450-454-472-310800- ...C-MAN AND BUOY OBSERVATIONS... STATION/POSITION TIME TEMP WIND PRES WAVE SWELL AIR SEA DIR/SP/G HT/PER HT/PER/DIR (UTC) (F) (DEG/KT/KT) (MB) (FT/S) (FT/S/D) BUOY 41004 0650 51 68 360/ 23/ 29 1024.1R 7/ 6 2/11 BUOY 41008 0650 51 53 30/ 16/ 19 1025.1S 3/ 5 FOLLY BEACH CMAN 0700 41 360/ 14/ 16 1026.7R CAPERS NEARSHORE 0600 43 20/ 16/ 17 N/A FRIPP NEARSHORE 0600 48 40/ 16/ 19 1024.7R STATION/POSITION TIME TEMP WIND PRES WAVE SWELL AIR SEA DIR/SP/G HT/PER HT/PER/DIR (UTC) (F) (DEG/KT/KT) (MB) (FT/S) (FT/S/D) 5E ST. MARYS GA 0621 56 N/A 3/ 4 FRYING PAN BUOY 0650 43 62 340/ 25/ 31 1025.3R 8/ 6 BUOY 41025 0650 38 69 320/ 25/ 33 1022.0R 8/ 9 3/ 30/ 9 CAPE LOOKOUT NC 0700 35 330/ 22/ 25 1024.4R BUOY 41002 0650 57 71 320/ 23/ 31 1019.6R 13/ 9 BUOY 41010 0620 64 73 350/ 19/ 23 1022.2S ST AUGUSTINE FL 0700 55 10/ 19/ 21 1025.2R $$

USA.gov is the U.S. government's official web portal to all federal, state and local government web resources and services.